This demonstration page uses our WeatherBlox Daily Observations layout. Learn more.

Left ArrowRight Arrow

39.08367, -84.50855

Hourly Observations for August 19, 2017

Temp ( °F °C ) Dew Point ( °F °C ) Humidity (%) Winds ( mph kmh ) Pressure ( in mb ) Visibility ( mi km ) Precip ( " mm )
12:53 am 00:53 Clear 68 20 67 19.4 96 96 SSW 3 6 29.93 1014 10 16.0934 N/A
1:53 am 01:53 Clear 66 18.9 66 18.9 100 100 N N/A 29.94 1014 10 16.0934 N/A
2:50 am 02:50 Clear with Mist and Fog 66 19 66 19 100 100 N N/A 29.91 1013 2.5 4.02335 N/A
2:53 am 02:53 Clear with Mist and Fog 66 18.9 66 18.9 100 100 N N/A 29.93 1014 5 8.0467 N/A
3:53 am 03:53 Clear 67 19.4 66 18.9 97 97 N N/A 29.92 1013 9 14.48406 N/A
4:53 am 04:53 Clear 67 19.4 66 18.9 97 97 N N/A 29.91 1013 9 14.48406 N/A
5:53 am 05:53 Clear 67 19.4 67 19.4 100 100 N N/A 29.93 1014 10 16.0934 N/A
6:53 am 06:53 Clear 66 18.9 66 18.9 100 100 N N/A 29.93 1014 8 12.87472 N/A
7:53 am 07:53 Sunny 69 20.6 68 20 96 96 S 9 15 29.95 1014 10 16.0934 N/A
8:53 am 08:53 Sunny 72 22.2 68 20 87 87 SW 3 6 29.94 1014 10 16.0934 N/A
9:53 am 09:53 Sunny 74 23.3 69 20.6 85 85 S 7 11 29.95 1014 10 16.0934 N/A
10:53 am 10:53 Mostly Sunny 78 25.6 69 20.6 74 74 SSW 8 13 29.96 1015 10 16.0934 N/A
11:53 am 11:53 Sunny 81 27.2 70 21.1 69 69 SSW 5 7 29.96 1015 10 16.0934 N/A
12:53 pm 12:53 Partly Cloudy 83 28.3 69 20.6 63 63 S 8 13 29.95 1014 10 16.0934 N/A
1:53 pm 13:53 Mostly Cloudy 84 28.9 68 20 59 59 SSW 9 15 29.94 1014 10 16.0934 N/A
2:53 pm 14:53 Mostly Cloudy 84 28.9 68 20 59 59 SW 7 11 29.93 1013 10 16.0934 N/A
3:53 pm 15:53 Mostly Cloudy 87 30.6 69 20.6 55 55 SW 10 17 29.91 1013 10 16.0934 N/A
4:53 pm 16:53 Partly Cloudy 85 29.4 68 20 57 57 SW 6 9 29.9 1013 10 16.0934 N/A
5:53 pm 17:53 Partly Cloudy 87 30.6 67 19.4 51 51 W 9 15 29.9 1013 10 16.0934 N/A
6:53 pm 18:53 Mostly Cloudy 84 28.9 67 19.4 57 57 W 8 13 29.91 1013 10 16.0934 N/A
7:53 pm 19:53 Sunny 80 26.7 66 18.9 62 62 SW 7 11 29.92 1013 10 16.0934 N/A
8:53 pm 20:53 Clear 75 23.9 69 20.6 82 82 SE 3 6 29.94 1014 10 16.0934 N/A
9:53 pm 21:53 Clear 73 22.8 69 20.6 87 87 N 6 9 29.97 1015 10 16.0934 N/A
10:53 pm 22:53 Clear 71 21.7 69 20.6 94 94 N N/A 29.98 1015 10 16.0934 N/A
11:53 pm 23:53 Clear 70 21.1 69 20.6 97 97 N N/A 30 1016 10 16.0934 N/A

Powered by AerisWeather